Location: Marcé
(47.5801°N, 0.3280°W)
Time: 10:53:27
(UTC+01:00)

deb Explorer IX - Pass Details

Date: 09 December 2021
Orbit: 544 x 1082 km, 38.8° (Epoch: 17 January)

Event Time Altitude Azimuth Distance (km) Brightness Sun altitude
Rises 09:01:03 0° 223° (SW) 3,417 ? 2.4°
Reaches altitude 10° 09:04:21 10° 208° (SSW) 2,371 ? 2.8°
Maximum altitude 09:08:17 20° 162° (SSE) 1,654 ? 3.3°
Drops below altitude 10° 09:11:52 10° 115° (ESE) 2,117 ? 3.8°
Sets 09:14:36 0° 99° (E) 2,943 ? 4.1°
